Regional Weather Roundup
Issued by NWS

Home | Current Version | Previous Version | Text Only | Print | Product List | Glossary Off
Versions: 1 2 3 4 5 6 7 8 9 10 11 12 13 14 15 16 17 18 19 20 21 22 23 24 25 26 27 28 29 30 31 32 33 34 35 36 37 38 39 40 41 42 43 44 45 46 47 48 49 50

000
ASUS43 KLOT 201103
RWRIL

ILLINOIS REGIONAL WEATHER ROUNDUP
NATIONAL WEATHER SERVICE CHICAGO/ROMEOVILLE IL
500 AM CST MON NOV 20 2017

NOTE: "FAIR" INDICATES FEW OR NO CLOUDS BELOW 12,000 FEET WITH NO
SIGNIFICANT WEATHER AND/OR OBSTRUCTIONS TO VISIBILITY.

* THESE STATIONS ARE NOT UNDER NWS QUALITY CONTROL. THEY ALSO MAY NOT
  REPORT WEATHER SUCH AS PRECIPITATION OR FOG.

ILZ001-002-007-009-015-016-024-201200-
NORTHWEST ILLINOIS

CITY           SKY/WX    TMP DP  RH WIND       PRES   REMARKS
MOLINE         CLOUDY    35  25  66 SW5       29.93F WCI  31
STERLING*      PTCLDY    32  26  78 MISG        N/A
SAVANNA*       CLEAR     30  26  84 S10       29.92F WCI  21
$$

ILZ003-004-008-010-011-017-018-201200-
NORTH CENTRAL ILLINOIS

CITY           SKY/WX    TMP DP  RH WIND       PRES   REMARKS
ROCKFORD       CLOUDY    31  24  75 S9        29.96F WCI  23
FREEPORT*      CLEAR     31  25  78 S14       29.93F WCI  21
ROCHELLE*      PTCLDY    29  25  86 S6        29.96S WCI  23
DE KALB*       PTCLDY    27  24  88 S10       29.96F WCI  18
$$

ILZ005-006-012>014-019>023-201200-
NORTHEAST ILLINOIS

CITY           SKY/WX    TMP DP  RH WIND       PRES   REMARKS
CHICAGO-OHARE  PTCLDY    34  23  64 SW12      29.97S WCI  25
CHICAGO-MIDWAY PTCLDY    33  24  69 SW9       29.99F WCI  25
AURORA         PTCLDY    31  24  75 S9        29.98F WCI  23
LANSING*       CLEAR     31  26  80 SW13      30.02F WCI  21
JOLIET*        CLOUDY    34  26  72 SW6       30.00F WCI  29
WAUKEGAN       CLEAR     32  24  72 SW16      29.93F WCI  21
DUPAGE AIRPORT CLOUDY    28  24  85 S9        29.97S WCI  19
KANKAKEE*      PTCLDY    32  24  74 S9        30.04F WCI  24
WHEELING       CLEAR     33  24  69 S8        29.98F WCI  26
MORRIS*        PTCLDY    33  25  71 SW10      29.99F WCI  25
ROMEOVILLE*    CLOUDY    31  25  79 S8        30.00S WCI  24
NORTHERLY ISL    N/A     35  22  59 S7          N/A  WCI  29
$$

LMZ740>746-201200-
SOUTHERN LAKE MICHIGAN

STATION/POSITION SKY/WX   TEMP    WIND        PRES    VSBY  WAVE
                          AIR SEA DIR/SP/G                  HT/PER
                          (F)     (DEG/KT/KT) (MB)    (MI)  (FT/S)
SOUTHERN BUOY              42 49  270/ 23/ 27 1014.0          5/ 6
HARRISON CRIB              37     210/ 25/ 28   N/A
BURNHAM HARBOR             35     200/  5/ 10   N/A
CALUMET HARBOR             34     200/ 11/ 16 1015.4F
BURNS HARBOR               33     190/ 12/ 17 1016.9S
MICHIGAN CITY              33     180/ 16/ 19   N/A
$$

ILZ025>027-034>036-040-047-049-050-058-095>099-201200-
WEST-CENTRAL ILLINOIS

CITY           SKY/WX    TMP DP  RH WIND       PRES   REMARKS
QUINCY         CLOUDY    37  27  67 S12       30.00F WCI  29
GALESBURG*     CLOUDY    33  28  81 S10       29.97F WCI  25
MACOMB*        CLOUDY    36  28  74 SW10      30.01F WCI  28
JACKSONVILLE*  CLOUDY    34  24  67 S12       30.04F WCI  26
PITTSFIELD*    CLOUDY    37  27  65 S12       30.04F WCI  30
$$

ILZ028>032-037-038-041>044-048-051>054-059>061-201200-
CENTRAL ILLINOIS

CITY           SKY/WX    TMP DP  RH WIND       PRES   REMARKS
PONTIAC        CLEAR     34  27  73 S15       30.02F WCI  25
BLOOMINGTON    CLOUDY    31  25  78 S13       30.05F WCI  21
DECATUR        CLOUDY    34  22  61 S17G23    30.08F WCI  23
PEORIA         PTCLDY    31  25  78 S9        30.02F WCI  23
LACON*         CLOUDY    34  25  68 SW9       30.00F WCI  27
LINCOLN*       CLOUDY    34  26  72 S9G18     30.06S WCI  26
SPRINGFIELD    CLOUDY    35  25  66 S12       30.06F WCI  27
TAYLORVILLE    CLOUDY    32  23  71 S14       30.09F WCI  22
$$

ILZ033-039-045-046-055>057-062-063-201200-
EAST-CENTRAL ILLINOIS

CITY           SKY/WX    TMP DP  RH WIND       PRES   REMARKS
CHAMPAIGN      CLOUDY    31  25  78 S13       30.09F WCI  21
DANVILLE*      CLOUDY    30  23  75 SW10      30.08S WCI  21
RANTOUL*       CLOUDY    33  26  76 S7        30.08S WCI  27
MATTOON        CLOUDY    31  22  69 S9        30.11F WCI  23
PARIS*         CLOUDY    30  24  77 S10       30.15R WCI  21
$$

ILZ079-100>102-201200-
SOUTHWEST ILLINOIS

CITY           SKY/WX    TMP DP  RH WIND       PRES   REMARKS
ALTON          CLOUDY    33  24  70 S13       30.12S WCI  23
BELLEVILLE     CLEAR     30  21  70 S5        30.13F WCI  25
CAHOKIA*       CLOUDY    26  21  81 CALM      30.14S
SPARTA*        CLOUDY    33  21  60 S10       30.17F WCI  25
$$

ILZ064>066-069>071-074>076-080>082-084>086-088>090-092>094-201200-
SOUTH-CENTRAL ILLINOIS

CITY           SKY/WX    TMP DP  RH WIND       PRES   REMARKS
CARBONDALE     CLOUDY    24  23  96 S5        30.20S WCI  18
CAIRO*         CLOUDY    25  24  96 CALM      30.24R
EFFINGHAM*     CLEAR     30  23  74 SE5       30.16F WCI  25
MARION         CLOUDY    31  24  74 S3        30.21S
MT. VERNON     CLOUDY    23  21  92 CALM      30.18F
SALEM*         CLEAR     33  22  64 S7        30.15S WCI  27
METROPOLIS*    PTCLDY    25  23  95 CALM      30.24R
$$

ILZ067-068-072-073-078-083-087-091-201200-
SOUTHEAST ILLINOIS

CITY           SKY/WX    TMP DP  RH WIND       PRES   REMARKS
LAWRENCEVILLE  CLEAR     28  23  81 S7        30.20S WCI  21
FLORA*         CLEAR     30  24  77 S6        30.15R WCI  24
FAIRFIELD*     CLEAR     28  23  81 CALM      30.18F
HARRISBURG*    CLOUDY    25  24  95 CALM      30.22S
ROBINSON*      CLEAR     28  22  78 S7        30.20R WCI  20
CARMI*         CLOUDY    25  22  91 S5        30.20S WCI  19
$$

ABBREVIATIONS USED IN REMARKS
   TC - TEMPERATURE IN CELSIUS
  WCI - WIND CHILL INDEX
   HX - HEAT INDEX
  VSB - VISIBILITY
$$





USA.gov is the U.S. government's official web portal to all federal, state and local government web resources and services.